Regional Weather Roundup
Issued by NWS

Home | Current Version | Previous Version | Text Only | Print | Product List | Glossary On
Versions: 1 2 3 4 5 6 7 8 9 10 11 12 13 14 15 16 17 18 19 20 21 22 23 24 25 26 27 28 29 30 31 32 33 34 35 36 37 38 39 40 41 42 43 44 45 46 47 48 49 50
041
ASUS42 KKEY 251010
RWRKEY

FLORIDA REGIONAL WEATHER ROUNDUP FOR THE FLORIDA KEYS
NATIONAL WEATHER SERVICE KEY WEST FLORIDA
600 AM EDT SUN JUN 25 2017

...SOUTH FLORIDA AND THE KEYS...

CITY           SKY/WX    TMP DP  RH WIND       PRES   REMARKS
FORT MYERS     PTCLDY    76  76 100 CALM      30.08R
SW REGIONAL AP PTCLDY    77  74  90 CALM      30.09R
NAPLES         PTCLDY    78  75  90 E6        30.08R
MIAMI          PTCLDY    82  74  76 SE5       30.08R
WEST KENDALL   CLEAR     81  73  76 SE3       30.08R
HOMESTEAD      CLEAR     80  75  84 SE7       30.07S
MARATHON       PTCLDY    83  76  79 SE9       30.06R HX  91
BOCA CHICA NAS PTCLDY    81  76  84 SE13      30.06R
KEY WEST INTL  PTCLDY    83  74  74 SE12      30.07R

...INTERNATIONAL WEATHER...

CITY           SKY/WX    TMP DP  RH WIND       PRES   REMARKS
NASSAU BAHAMAS MOCLDY    82  77  83 E3        30.09S HX  91
CANCUN MEXICO  PTCLDY    79  79 100 N3        29.98F
COZUMEL MEXICO MOCLDY    79  77  94 NE3       29.96F

ADJACENT COASTAL WATERS...

STATION/POSITION TIME  SKY/WX   TEMP    WIND        PRES    WAVE
                                AIR SEA DIR/SP/G            HT/PER
                 (UTC)          (F)     (DEG/KT/KT) (MB)    (FT/S)
PULASKI SHOAL LI 1000            83     120/ 15/ 16 1017.9R
SAND KEY         0950            82     140/ 16/ 18 1018.4R
LONG KEY         0800                   160/ 13       N/A
MOLASSES REEF    0900            82 83  100/ 11/ 12 1018.1F
FOWEY ROCKS      1000            82 82  140/ 14/ 15 1019.2R
Buoy 42097       0930               82                N/A     2/ 4

$$




USA.gov is the U.S. government's official web portal to all federal, state and local government web resources and services.